TimeCEST,TemperatureF,Dew PointF,Humidity,Sea Level PressureIn,VisibilityMPH,Wind Direction,Wind SpeedMPH,Gust SpeedMPH,PrecipitationIn,Events,Conditions,WindDirDegrees,DateUTC
12:55 AM,44.6,44.6,100,29.92,-9999.0,North,-9999.0,-,N/A,,Clear,0,2013-09-18 22:55:00
1:55 AM,44.6,42.8,93,29.89,-9999.0,North,-9999.0,-,N/A,,Clear,0,2013-09-18 23:55:00
2:00 AM,44,44,98,,9,West,11.5,,,,,280,2013-09-19 00:00:00
2:55 AM,42.8,42.8,100,29.89,-9999.0,North,-9999.0,-,N/A,,Clear,0,2013-09-19 00:55:00
3:55 AM,42.8,41.0,93,29.89,-9999.0,North,-9999.0,-,N/A,,Clear,0,2013-09-19 01:55:00
7:55 AM,44.6,44.6,100,29.86,-9999.0,North,-9999.0,-,N/A,,Partly Cloudy,0,2013-09-19 05:55:00
8:00 AM,45,45,100,,9,West,13.8,,,,,280,2013-09-19 06:00:00
8:55 AM,44.6,44.6,100,29.86,-9999.0,North,-9999.0,-,N/A,,Partly Cloudy,0,2013-09-19 06:55:00
9:55 AM,46.4,46.4,100,29.89,-9999.0,North,-9999.0,-,N/A,,Partly Cloudy,0,2013-09-19 07:55:00
10:55 AM,48.2,46.4,93,29.89,-9999.0,North,-9999.0,-,N/A,,Scattered Clouds,0,2013-09-19 08:55:00
11:55 AM,48.2,48.2,100,29.92,-9999.0,North,-9999.0,-,N/A,,Scattered Clouds,0,2013-09-19 09:55:00
12:55 PM,50.0,48.2,94,29.92,-9999.0,North,-9999.0,-,N/A,,Scattered Clouds,0,2013-09-19 10:55:00
1:55 PM,50.0,48.2,94,29.92,-9999.0,North,-9999.0,-,N/A,,Scattered Clouds,0,2013-09-19 11:55:00
2:00 PM,49,48,97,,16,WNW,18.4,,,,,290,2013-09-19 12:00:00
2:55 PM,50.0,48.2,94,29.95,-9999.0,North,-9999.0,-,N/A,,Scattered Clouds,0,2013-09-19 12:55:00
3:55 PM,51.8,46.4,82,29.95,-9999.0,North,-9999.0,-,N/A,,Scattered Clouds,0,2013-09-19 13:55:00
4:55 PM,53.6,46.4,77,29.95,-9999.0,North,-9999.0,-,N/A,,Scattered Clouds,0,2013-09-19 14:55:00
5:55 PM,55.4,48.2,77,29.95,-9999.0,North,-9999.0,-,N/A,,Scattered Clouds,0,2013-09-19 15:55:00
6:55 PM,55.4,48.2,77,29.95,-9999.0,North,-9999.0,-,N/A,,Scattered Clouds,0,2013-09-19 16:55:00
7:55 PM,55.4,50.0,82,29.95,-9999.0,North,-9999.0,-,N/A,,Scattered Clouds,0,2013-09-19 17:55:00
8:00 PM,55,50,76,,12,WNW,18.4,,,,,300,2013-09-19 18:00:00
8:55 PM,55.4,50.0,82,29.95,-9999.0,North,-9999.0,-,N/A,,Scattered Clouds,0,2013-09-19 18:55:00
9:55 PM,55.4,51.8,88,29.98,-9999.0,North,-9999.0,-,N/A,,Clear,0,2013-09-19 19:55:00
10:55 PM,51.8,46.4,82,29.98,-9999.0,North,-9999.0,-,N/A,,Scattered Clouds,0,2013-09-19 20:55:00
11:55 PM,50.0,48.2,94,30.01,-9999.0,North,-9999.0,-,N/A,,Partly Cloudy,0,2013-09-19 21:55:00